Weather History for Alpine, TX

Change the Weather History Date:

Friday, October 12, 2012

  Actual Average (KMRF) Record (KMRF)
Temperature  
Mean Temperature 70 °F -  
Max Temperature 82 °F 73 °F 86 °F (2007)
Min Temperature 59 °F 44 °F 39 °F (2005)
Cooling Degree Days 6    
Growing Degree Days 20 (Base 50)    
Moisture  
Dew Point 59 °F    
Average Humidity 70    
Maximum Humidity 96    
Minimum Humidity 43    
Precipitation  
Precipitation 0.41 in - - ()
Sea Level Pressure  
Sea Level Pressure 30.20 in    
Wind  
Wind Speed 8 mph (SSE)    
Max Wind Speed 34 mph    
Max Gust Speed 40 mph    
Visibility 10 miles    
Events Thunderstorm    
Averages and records for this station are not official NWS values.
T = Trace of Precipitation, MM = Missing Value Source: NWS Daily Summary

Daily Weather History Graph

Daily Weather History Graph

Search for Another Location

Airport:

Trip Planner

Search our weather history database for the weather conditions in past years. The results will help you decide how hot, cold, wet, or windy it might be!

Date:

Astronomy

Oct. 12, 2012 Rise Set
Actual Time 7:55 AM CDT 7:26 PM CDT
Civil Twilight 7:31 AM CDT 7:50 PM CDT
Nautical Twilight 7:03 AM CDT 8:18 PM CDT
Astronomical Twilight 6:35 AM CDT 8:46 PM CDT
Moon 4:52 AM CDT (10/12) 5:28 PM CDT (10/12)
Length of Visible Light 12h 19m
Length of Day
11h 31m
Waning Crescent, 10% of the Moon is Illuminated
Oct 12
Waning Crescent
Oct 15
New
Oct 21
First Quarter
Oct 29
Full
Nov 6
Last Quarter

Hourly Weather History & Observations

Time (CDT) Temp. Heat Index Dew Point Humidity Pressure Visibility Wind Dir Wind Speed Gust Speed Precip Events Conditions
12:15 AM 66.7 °F - 60.4 °F 80% 30.19 in 10.0 mi West 4.6 mph - N/A   Scattered Clouds
12:35 AM 64.8 °F - 59.4 °F 83% 30.19 in 10.0 mi SW 5.8 mph - N/A   Mostly Cloudy
12:55 AM 66.6 °F - 60.1 °F 80% 30.19 in 4.0 mi NE 5.8 mph - 0.01 in   Mostly Cloudy
1:15 AM 65.3 °F - 61.3 °F 87% 30.20 in 10.0 mi SE 4.6 mph - 0.01 in Thunderstorm Clear
1:35 AM 65.8 °F - 59.4 °F 80% 30.25 in 10.0 mi SSW 34.5 mph 40.3 mph 0.01 in Thunderstorm Thunderstorm
1:55 AM 62.1 °F - 58.6 °F 89% 30.30 in 0.5 mi SSW 19.6 mph 38.0 mph 0.33 in Thunderstorm Thunderstorm
2:15 AM 60.1 °F - 58.8 °F 96% 30.27 in 7.0 mi South 5.8 mph - 0.07 in Thunderstorm Thunderstorm
2:35 AM 60.3 °F - 59.0 °F 96% 30.26 in 10.0 mi ENE 6.9 mph - 0.07 in Thunderstorm Scattered Clouds
2:55 AM 59.9 °F - 58.6 °F 96% 30.25 in 10.0 mi Calm Calm - 0.07 in   Scattered Clouds
3:15 AM 59.9 °F - 58.5 °F 95% 30.26 in 10.0 mi ESE 4.6 mph - N/A Thunderstorm Clear
3:35 AM 60.3 °F - 58.3 °F 93% 30.25 in 10.0 mi West 4.6 mph - N/A   Clear
3:55 AM 60.1 °F - 58.1 °F 93% 30.24 in 10.0 mi WNW 4.6 mph - N/A Thunderstorm Clear
4:15 AM 60.1 °F - 58.5 °F 94% 30.23 in 10.0 mi Calm Calm - N/A   Clear
4:35 AM 60.1 °F - 58.3 °F 94% 30.21 in 10.0 mi WSW 4.6 mph - N/A   Clear
4:55 AM 59.9 °F - 58.1 °F 94% 30.20 in 10.0 mi SW 6.9 mph - N/A   Scattered Clouds
5:15 AM 59.9 °F - 58.3 °F 94% 30.20 in 10.0 mi South 9.2 mph - N/A   Scattered Clouds
5:55 AM 61.9 °F - 59.0 °F 90% 30.20 in 10.0 mi SSW 8.1 mph - N/A   Mostly Cloudy
6:15 AM 63.5 °F - 58.3 °F 83% 30.19 in 10.0 mi SW 6.9 mph - N/A   Overcast
6:35 AM 63.5 °F - 58.1 °F 83% 30.19 in 10.0 mi SSW 5.8 mph - N/A   Mostly Cloudy
6:55 AM 64.4 °F - 57.9 °F 79% 30.20 in 10.0 mi South 8.1 mph - N/A   Scattered Clouds
7:15 AM 65.7 °F - 58.6 °F 78% 30.20 in 10.0 mi SW 4.6 mph - N/A   Scattered Clouds
7:35 AM 66.7 °F - 59.0 °F 76% 30.21 in 10.0 mi SSW 4.6 mph - N/A   Scattered Clouds
7:55 AM 67.3 °F - 59.0 °F 75% 30.21 in 10.0 mi SSW 3.5 mph - N/A   Mostly Cloudy
8:15 AM 66.7 °F - 58.6 °F 75% 30.21 in 10.0 mi South 6.9 mph - N/A   Scattered Clouds
8:35 AM 66.4 °F - 59.0 °F 77% 30.23 in 10.0 mi SSE 3.5 mph - N/A   Clear
9:15 AM 67.6 °F - 60.4 °F 78% 30.24 in 10.0 mi Calm Calm - N/A   Clear
9:35 AM 68.9 °F - 61.0 °F 76% 30.24 in 10.0 mi Calm Calm - N/A   Clear
9:55 AM 70.2 °F - 61.7 °F 74% 30.25 in 10.0 mi SSW 6.9 mph - N/A   Clear
10:15 AM 70.9 °F - 61.2 °F 71% 30.26 in 10.0 mi SW 9.2 mph - N/A   Scattered Clouds
10:35 AM 72.0 °F - 61.0 °F 68% 30.26 in 10.0 mi South 10.4 mph - N/A   Scattered Clouds
10:55 AM 72.9 °F - 61.0 °F 66% 30.25 in 10.0 mi South 8.1 mph - N/A   Scattered Clouds
11:15 AM 74.5 °F - 61.0 °F 63% 30.25 in 10.0 mi SSE 11.5 mph - N/A   Clear
11:35 AM 76.1 °F - 61.3 °F 60% 30.24 in 10.0 mi SE 13.8 mph - N/A   Clear
12:15 PM 78.1 °F - 61.5 °F 57% 30.24 in 10.0 mi SE 13.8 mph 19.6 mph N/A   Clear
12:35 PM 79.3 °F - 60.8 °F 53% 30.23 in 10.0 mi SSE 15.0 mph - N/A   Clear
12:55 PM 78.8 °F - 61.2 °F 55% 30.23 in 10.0 mi SSE 12.7 mph - N/A   Clear
1:35 PM 79.2 °F - 60.4 °F 53% 30.21 in 10.0 mi SSE 11.5 mph 17.3 mph N/A   Clear
1:55 PM 78.4 °F - 59.0 °F 51% 30.20 in 10.0 mi SSE 12.7 mph 17.3 mph N/A   Clear
2:15 PM 77.5 °F - 59.4 °F 53% 30.20 in 10.0 mi SSE 9.2 mph - N/A   Clear
2:35 PM 77.0 °F - 60.6 °F 57% 30.19 in 10.0 mi SE 8.1 mph - N/A   Clear
2:55 PM 77.5 °F - 61.0 °F 57% 30.19 in 10.0 mi SSE 10.4 mph - N/A   Clear
3:15 PM 78.6 °F - 58.1 °F 49% 30.17 in 10.0 mi South 11.5 mph - N/A   Clear
3:35 PM 80.6 °F 81.2 °F 59.5 °F 49% 30.17 in 10.0 mi South 11.5 mph - N/A   Clear
3:55 PM 80.8 °F 81.5 °F 60.6 °F 50% 30.16 in 10.0 mi SSE 8.1 mph - N/A   Clear
4:15 PM 81.9 °F 82.3 °F 60.6 °F 48% 30.15 in 10.0 mi SE 10.4 mph - N/A   Scattered Clouds
4:35 PM 82.4 °F 82.5 °F 59.0 °F 45% 30.15 in 10.0 mi SSE 12.7 mph 17.3 mph N/A   Clear
5:15 PM 82.0 °F 81.8 °F 57.4 °F 43% 30.14 in 10.0 mi South 9.2 mph 16.1 mph N/A   Clear
5:55 PM 81.0 °F 81.5 °F 59.4 °F 48% 30.13 in 10.0 mi SE 9.2 mph - N/A   Clear
6:15 PM 80.4 °F 81.0 °F 59.2 °F 48% 30.13 in 10.0 mi SE 9.2 mph - N/A   Clear
6:35 PM 79.2 °F - 59.2 °F 50% 30.13 in 10.0 mi SE 10.4 mph - N/A   Clear
6:55 PM 78.3 °F - 59.5 °F 52% 30.14 in 10.0 mi ESE 9.2 mph - N/A   Clear
7:15 PM 76.8 °F - 61.3 °F 59% 30.14 in 10.0 mi SE 11.5 mph - N/A   Clear
7:35 PM 75.4 °F - 62.1 °F 63% 30.15 in 10.0 mi ESE 13.8 mph - N/A   Clear
7:55 PM 74.1 °F - 62.4 °F 67% 30.15 in 10.0 mi SSE 9.2 mph - N/A   Clear
8:15 PM 72.9 °F - 61.7 °F 68% 30.15 in 10.0 mi SE 13.8 mph 17.3 mph N/A   Clear
8:35 PM 71.6 °F - 61.3 °F 70% 30.13 in 10.0 mi SSE 13.8 mph 21.9 mph N/A   Clear
8:55 PM 70.9 °F - 60.4 °F 69% 30.13 in 10.0 mi SSE 15.0 mph 23.0 mph N/A   Clear
9:15 PM 70.3 °F - 60.3 °F 70% 30.14 in 10.0 mi SE 10.4 mph 16.1 mph N/A   Clear
9:35 PM 69.6 °F - 60.4 °F 73% 30.15 in 10.0 mi SSE 5.8 mph - N/A   Clear
9:55 PM 69.3 °F - 59.0 °F 70% 30.15 in 10.0 mi SSW 5.8 mph - N/A   Clear
10:15 PM 69.8 °F - 56.5 °F 63% 30.15 in 10.0 mi SSE 6.9 mph - N/A   Clear
10:35 PM 70.3 °F - 54.9 °F 58% 30.15 in 10.0 mi SSE 9.2 mph - N/A   Clear
10:55 PM 68.4 °F - 55.8 °F 64% 30.15 in 10.0 mi South 5.8 mph - N/A   Clear
11:15 PM 67.8 °F - 56.1 °F 66% 30.16 in 10.0 mi South 9.2 mph - N/A   Clear
11:35 PM 67.5 °F - 56.8 °F 69% 30.16 in 10.0 mi SE 11.5 mph 17.3 mph N/A   Scattered Clouds
11:55 PM 68.2 °F - 56.1 °F 65% 30.15 in 10.0 mi SE 12.7 mph 23.0 mph N/A   Mostly Cloudy